| time (UTC) | temp F | wind direction | speed knots | gust knots | rain 1hr in | rain 24hr in | rain mn in | humidity % | barometer mb |
| 20260504193355 | 69 | 270 | 1.7 | 1.7 | 0.00 | 0.00 | 0.00 | 75 | 1010.0 |
| 20260504190354 | 69 | 288 | 1.7 | 1.7 | 0.00 | 0.00 | 0.00 | 80 | 1011.0 |
| 20260504183353 | 68 | 288 | 1.7 | 1.7 | 0.00 | 0.00 | 0.00 | 75 | 1011.0 |
| 20260504180352 | 68 | 290 | 2.6 | 1.7 | 0.00 | 0.00 | 0.00 | 76 | 1012.0 |
| 20260504173351 | 67 | 297 | 2.6 | 1.7 | 0.00 | 0.00 | 0.00 | 78 | 1012.0 |
| 20260504170350 | 68 | 305 | 3.5 | 1.7 | 0.00 | 0.00 | 0.00 | 86 | 1014.0 |
| 20260504160347 | 66 | 321 | 2.6 | 1.7 | 0.00 | 0.00 | 0.00 | 90 | 1015.0 |
| 20260504150345 | 58 | 353 | 0.9 | 0.9 | 0.00 | 0.00 | 0.00 | 93 | 1016.0 |
| 20260504140343 | 60 | 23 | 0.9 | 1.7 | 0.00 | 0.00 | 0.00 | 95 | 1016.0 |
| 20260504130341 | 61 | 47 | 0.9 | 0.9 | 0.00 | 0.00 | 0.00 | 95 | 1016.0 |
| 20260504110337 | 53 | 119 | 0.9 | 0.9 | 0.00 | 0.00 | 0.00 | 93 | 1015.0 |
| 20260504100335 | 54 | 107 | 0.9 | 0.9 | 0.00 | 0.00 | 0.00 | 93 | 1015.0 |
| 20260504080330 | 55 | 107 | 1.7 | 0.9 | 0.00 | 0.00 | 0.00 | 93 | 1014.0 |
| 20260504070328 | 56 | 120 | 1.7 | 1.7 | 0.00 | 0.00 | 0.00 | 93 | 1015.0 |
| 20260504050325 | 58 | 130 | 1.7 | 0.9 | 0.00 | 0.00 | 0.00 | 92 | 1016.0 |
| 20260504043324 | 59 | 130 | 1.7 | 0.9 | 0.00 | 0.00 | 0.00 | 94 | 1016.0 |
| 20260504040323 | 59 | 135 | 2.6 | 1.7 | 0.00 | 0.00 | 0.00 | 91 | 1016.0 |
| 20260504033322 | 60 | 135 | 2.6 | 1.7 | 0.00 | 0.00 | 0.00 | 93 | 1016.0 |
| 20260504030321 | 60 | 131 | 2.6 | 1.7 | 0.00 | 0.00 | 0.00 | 91 | 1016.0 |
| 20260504023320 | 61 | 131 | 2.6 | 1.7 | 0.00 | 0.00 | 0.00 | 92 | 1016.0 |
| 20260504020319 | 61 | 121 | 2.6 | 1.7 | 0.00 | 0.00 | 0.00 | 91 | 1015.0 |
| 20260504013318 | 62 | 121 | 2.6 | 1.7 | 0.00 | 0.00 | 0.00 | 93 | 1015.0 |
| 20260504010316 | 62 | 103 | 2.6 | 1.7 | 0.00 | 0.00 | 0.00 | 90 | 1014.0 |
| 20260504003316 | 63 | 103 | 2.6 | 1.7 | 0.00 | 0.00 | 0.00 | 92 | 1013.0 |
| 20260504000314 | 58 | 120 | 2.6 | 0.9 | 0.00 | 0.00 | 0.00 | 91 | 1012.0 |
| 20260503233313 | 64 | 143 | 2.6 | 0.9 | 0.00 | 0.00 | 0.00 | 91 | 1012.0 |
| 20260503230312 | 59 | 202 | 0.9 | 0.9 | 0.00 | 0.00 | 0.00 | 90 | 1011.0 |
| 20260503223311 | 65 | 202 | 0.9 | 0.9 | 0.00 | 0.00 | 0.00 | 90 | 1011.0 |
| 20260503220310 | 65 | 285 | 0.9 | 0.9 | 0.00 | 0.00 | 0.00 | 88 | 1010.0 |
| 20260503213309 | 66 | 285 | 0.9 | 0.9 | 0.00 | 0.00 | 0.00 | 88 | 1010.0 |
| 20260503210308 | 66 | 318 | 1.7 | 2.6 | 0.00 | 0.00 | 0.00 | 87 | 1010.0 |
| 20260503203307 | 67 | 318 | 1.7 | 2.6 | 0.00 | 0.00 | 0.00 | 86 | 1010.0 |
| 20260503200306 | 67 | 305 | 1.7 | 1.7 | 0.00 | 0.00 | 0.00 | 84 | 1010.0 |